Location: Croydon
(51.3762°N, 0.0982°W)
Time: 08:18:40
(UTC+00:00)

Altair - Pass Details

Date: 22 November 2019
Orbit: 1502 x 1682 km, 47.2° (Epoch: 07 December)

Event Time Altitude Azimuth Distance (km) Brightness Sun altitude
Rises 04:47:49 0° 261° (W) 4,638 - -24.6°
Reaches altitude 10° 04:50:50 10° 259° (W) 3,654 - -24.1°
Exits shadow 04:55:30 35° 251° (WSW) 2,263 7.9 -23.4°
Maximum altitude 04:59:55 70° 178° (S) 1,594 7.5 -22.7°
Drops below altitude 10° 05:09:08 10° 98° (E) 3,710 10.7 -21.3°
Sets 05:12:14 0° 96° (E) 4,714 11.7 -20.8°
